GOKTURK 2

Last updated on Sat Dec 13 2025 00:02:31 GMT+0000 (Coordinated Universal Time)

1 39030U 12073A 25346.30974934 .00000726 00000+0 11420-3 0 9992 2 39030 97.6895 187.9844 0000990 103.7087 256.4233 14.75288953696958
UTC large
Height (km)
Speed (km/s)
/
Latitude / Longitude
Inclination (degrees)
Orbital Period (minutes)
Azimuth
Elevation
Range (km)
Doppler Factor

Next 0 passes for location: London (51.5072 / 0.1276)

Sorry there are no passes over London.